Wappingers Falls, NY

9:20 AM EDT on October 01, 2016 (GMT -0400)
Dutchess County

Weather History for KPOU - October, 2013

Change the Weather History Date:

Friday, October 4, 2013

  Actual Average Record
Temperature  
Mean Temperature 67 °F 56 °F  
Max Temperature 80 °F 68 °F 85 °F (2007)
Min Temperature 54 °F 43 °F 29 °F (1974)
Degree Days  
Heating Degree Days 0 10  
Month to date heating degree days 7 38  
Since 1 July heating degree days 150 178  
Cooling Degree Days 2 0  
Month to date cooling degree days 2 0  
Year to date cooling degree days 823 668  
Growing Degree Days 16 (Base 50)    
Moisture  
Dew Point 60 °F    
Average Humidity 78    
Maximum Humidity 93    
Minimum Humidity 62    
Precipitation  
Precipitation T in 0.14 in 1.20 in (1987)
Month to date precipitation T 0.59  
Year to date precipitation 32.54 35.65  
Sea Level Pressure  
Sea Level Pressure 30.02 in    
Wind  
Wind Speed 2 mph (NW)    
Max Wind Speed 8 mph    
Max Gust Speed 12 mph    
Visibility 10 miles    
Events Rain    
T = Trace of Precipitation, MM = Missing Value Source: NWS Daily Summary

Daily Weather History Graph

Daily Weather History Graph

Search for Another Location

Airport or City:

Trip Planner

Search our weather history database for the weather conditions in past years. The results will help you decide how hot, cold, wet, or windy it might be!

Date:

Astronomy

Oct. 04, 2013 Rise Set
Actual Time 6:55 AM EDT 6:31 PM EDT
Civil Twilight 6:28 AM EDT 6:59 PM EDT
Nautical Twilight 5:55 AM EDT 7:31 PM EDT
Astronomical Twilight 5:23 AM EDT 8:03 PM EDT
Moon 6:28 AM EDT (10/4) 6:12 PM EDT (10/4)
Length of Visible Light 12h 31m
Length of Day
11h 36m
Waning Crescent, 0% of the Moon is Illuminated
Oct 4
Waning Crescent
Oct 4
New
Oct 11
First Quarter
Oct 18
Full
Oct 26
Last Quarter

Hourly Weather History & Observations

Time (EDT) Temp. Dew Point Humidity Pressure Visibility Wind Dir Wind Speed Gust Speed Precip Events Conditions
12:53 AM 57.9 °F 55.0 °F 90% 30.05 in 10.0 mi Calm Calm - N/A   Unknown
1:53 AM 55.9 °F 54.0 °F 93% 30.05 in 10.0 mi Calm Calm - N/A   Unknown
2:53 AM 55.0 °F 54.0 °F 96% 30.04 in 10.0 mi Calm Calm - N/A   Unknown
3:53 AM 55.0 °F 53.1 °F 93% 30.03 in 10.0 mi Calm Calm - N/A   Unknown
4:53 AM 55.0 °F 54.0 °F 96% 30.03 in 10.0 mi Calm Calm - N/A   Unknown
5:53 AM 55.0 °F 53.1 °F 93% 30.03 in 10.0 mi Calm Calm - N/A   Unknown
6:53 AM 55.0 °F 53.1 °F 93% 30.03 in 10.0 mi Calm Calm - N/A   Scattered Clouds
7:53 AM 55.9 °F 54.0 °F 93% 30.04 in 9.0 mi Calm Calm - N/A   Unknown
8:53 AM 61.0 °F 57.9 °F 90% 30.05 in 10.0 mi Calm Calm - N/A   Clear
9:53 AM 68.0 °F 61.0 °F 78% 30.03 in 10.0 mi Calm Calm - N/A   Clear
10:53 AM 73.0 °F 63.0 °F 71% 30.02 in 9.0 mi SSW 4.6 mph - N/A   Clear
11:53 AM 73.9 °F 64.9 °F 73% 30.01 in 7.0 mi West 4.6 mph - 0.00 in Rain Light Rain
12:53 PM 75.0 °F 64.0 °F 69% 30.00 in 10.0 mi NW 4.6 mph - 0.00 in   Clear
1:53 PM 75.0 °F 64.0 °F 69% 29.98 in 10.0 mi Calm Calm - N/A   Clear
2:53 PM 77.0 °F 64.9 °F 66% 29.97 in 10.0 mi North 3.5 mph - N/A   Clear
3:53 PM 78.1 °F 64.9 °F 64% 29.96 in 10.0 mi Calm Calm - N/A   Unknown
4:53 PM 77.0 °F 64.0 °F 64% 29.97 in 10.0 mi NNW 5.8 mph - N/A   Clear
5:53 PM 72.0 °F 63.0 °F 73% 29.97 in 10.0 mi NNW 4.6 mph - 0.00 in   Mostly Cloudy
6:53 PM 69.1 °F 61.0 °F 75% 29.99 in 10.0 mi North 4.6 mph - 0.00 in   Clear
7:53 PM 66.9 °F 61.0 °F 81% 30.01 in 10.0 mi Calm Calm - N/A   Clear
8:53 PM 66.0 °F 61.0 °F 84% 30.02 in 10.0 mi Calm Calm - N/A   Mostly Cloudy
9:53 PM 64.0 °F 61.0 °F 90% 30.02 in 10.0 mi NNW 4.6 mph - N/A   Partly Cloudy
10:53 PM 63.0 °F 60.1 °F 90% 30.03 in 9.0 mi NW 3.5 mph - N/A   Clear
11:03 PM 62.6 °F 60.8 °F 94% 30.05 in 8.0 mi NW 3.5 mph - N/A   Scattered Clouds
11:11 PM 62.6 °F 60.8 °F 94% 30.04 in 8.0 mi Calm Calm - N/A   Mostly Cloudy
11:18 PM 62.6 °F 60.8 °F 94% 30.04 in 8.0 mi North 3.5 mph - N/A   Mostly Cloudy
11:53 PM 63.0 °F 60.1 °F 90% 30.03 in 8.0 mi North 4.6 mph - N/A   Overcast